Change the Weather History Date:

Friday, August 2, 2013

  Actual Average Record
Temperature  
Mean Temperature 64 °F 71 °F  
Max Temperature 74 °F 82 °F 103 °F (1930)
Min Temperature 54 °F 59 °F 39 °F (1971)
Degree Days  
Heating Degree Days 1 1  
Month to date heating degree days 1 2  
Since 1 June heating degree days 121 97  
Since 1 July heating degree days 33 19  
Cooling Degree Days 0 6  
Month to date cooling degree days 2 12  
Year to date cooling degree days 310 336  
Since 1 June cooling degree days 288 314  
Growing Degree Days 14 (Base 50)    
Moisture  
Dew Point 52 °F    
Average Humidity 69    
Maximum Humidity 93    
Minimum Humidity 44    
Precipitation  
Precipitation 0.00 in 0.09 in 2.28 in (1956)
Month to date precipitation 0.00 0.18  
Year to date precipitation 16.29 13.63  
Sea Level Pressure  
Sea Level Pressure 29.99 in    
Wind  
Wind Speed 4 mph (NNE)    
Max Wind Speed 12 mph    
Max Gust Speed 14 mph    
Visibility 10 miles    
Events      
T = Trace of Precipitation, MM = Missing Value Source: NWS Daily Summary

Daily Weather History Graph

Daily Weather History Graph

Search for Another Location

Airport or City:

Trip Planner

Search our weather history database for the weather conditions in past years. The results will help you decide how hot, cold, wet, or windy it might be!

Date:

Astronomy

Aug. 02, 2013 Rise Set
Actual Time 6:15 AM CDT 8:53 PM CDT
Civil Twilight 5:42 AM CDT 9:26 PM CDT
Nautical Twilight 5:00 AM CDT 10:08 PM CDT
Astronomical Twilight 4:11 AM CDT 10:56 PM CDT
Moon 2:35 AM CDT (8/2) 5:53 PM CDT (8/2)
Length of Visible Light 15h 44m
Length of Day
14h 37m
Waning Crescent, 15% of the Moon is Illuminated
Aug 2
Waning Crescent
Aug 6
New
Aug 14
First Quarter
Aug 20
Full
Aug 28
Last Quarter

Hourly Weather History & Observations

Time (CDT) Temp. Dew Point Humidity Pressure Visibility Wind Dir Wind Speed Gust Speed Precip Events Conditions
12:53 AM 61.0 °F 55.9 °F 83% 29.92 in 10.0 mi North 3.5 mph - N/A   Mostly Cloudy
1:53 AM 57.0 °F 54.0 °F 89% 29.92 in 10.0 mi NNE 8.1 mph - N/A   Clear
2:53 AM 61.0 °F 52.0 °F 72% 29.94 in 10.0 mi Calm Calm - N/A   Clear
3:53 AM 62.1 °F 52.0 °F 70% 29.94 in 10.0 mi Calm Calm - N/A   Clear
4:53 AM 57.9 °F 53.1 °F 84% 29.94 in 10.0 mi North 4.6 mph - N/A   Mostly Cloudy
5:53 AM 55.9 °F 52.0 °F 87% 29.94 in 10.0 mi Calm Calm - N/A   Mostly Cloudy
6:53 AM 55.9 °F 53.1 °F 90% 29.96 in 10.0 mi NNW 4.6 mph - N/A   Clear
7:53 AM 59.0 °F 54.0 °F 83% 29.95 in 10.0 mi NNE 5.8 mph - N/A   Partly Cloudy
8:53 AM 64.0 °F 54.0 °F 70% 29.96 in 10.0 mi NNE 5.8 mph - N/A   Clear
9:53 AM 68.0 °F 54.0 °F 61% 29.97 in 10.0 mi NE 6.9 mph - N/A   Clear
10:53 AM 68.0 °F 55.0 °F 63% 29.99 in 10.0 mi NE 3.5 mph - N/A   Clear
11:53 AM 70.0 °F 53.1 °F 55% 29.99 in 10.0 mi Calm Calm - N/A   Clear
12:53 PM 71.1 °F 51.1 °F 49% 30.01 in 10.0 mi Calm Calm - N/A   Partly Cloudy
1:53 PM 71.1 °F 52.0 °F 51% 30.02 in 10.0 mi NNE 5.8 mph - N/A   Partly Cloudy
2:53 PM 71.1 °F 53.1 °F 53% 30.00 in 10.0 mi ENE 9.2 mph - N/A   Partly Cloudy
3:53 PM 73.9 °F 53.1 °F 48% 29.98 in 10.0 mi NE 8.1 mph - N/A   Partly Cloudy
4:53 PM 72.0 °F 50.0 °F 46% 30.01 in 10.0 mi Variable 3.5 mph - N/A   Scattered Clouds
5:53 PM 73.0 °F 50.0 °F 44% 30.01 in 10.0 mi ENE 8.1 mph - N/A   Partly Cloudy
6:53 PM 72.0 °F 52.0 °F 49% 30.02 in 10.0 mi NE 8.1 mph - N/A   Clear
7:53 PM 70.0 °F 51.1 °F 51% 30.04 in 10.0 mi NE 6.9 mph - N/A   Scattered Clouds
8:53 PM 62.1 °F 52.0 °F 70% 30.05 in 10.0 mi NE 6.9 mph - N/A   Clear
9:53 PM 57.0 °F 50.0 °F 77% 30.08 in 10.0 mi NNE 4.6 mph - N/A   Clear
10:53 PM 57.9 °F 50.0 °F 75% 30.09 in 10.0 mi Calm Calm - N/A   Clear
11:53 PM 55.0 °F 50.0 °F 83% 30.09 in 10.0 mi Calm Calm - N/A   Clear